Location: Fort Wayne
(41.1310°N, 85.1290°W)
Time: 06:00:15
(UTC-04:00)

Tiros 1 despin weight - Visible Passes

Search period start: 28 May 2015 00:00
Search period end: 07 June 2015 00:00
Orbit: 598 x 647 km, 48.2° (Epoch: 27 May)

Date Brightness Start Highest point End Pass type
(mag) Time Alt. Az. Time Alt. Az. Time Alt. Az.
28 May ? 01:31:13 10° WNW 01:35:18 33° N 01:39:26 10° ENE visible
28 May ? 03:13:02 10° WNW 03:17:31 61° NNE 03:22:03 10° ESE visible
28 May ? 04:54:55 10° WNW 04:59:03 34° SW 05:03:12 10° SSE visible
28 May ? 22:24:45 10° WSW 22:29:11 84° NNW 22:33:41 10° ENE visible
29 May ? 00:07:08 10° WNW 00:11:15 35° N 00:15:25 10° ENE visible
29 May ? 01:49:26 10° WNW 01:53:38 38° NNE 01:57:54 10° E visible
29 May ? 03:31:05 10° WNW 03:35:38 84° SSW 03:40:13 10° ESE visible
29 May ? 05:13:44 10° W 05:16:51 18° SW 05:19:52 10° S visible
29 May ? 22:42:59 10° W 22:47:20 53° NNW 22:51:43 10° ENE visible
30 May ? 00:25:34 10° WNW 00:29:36 33° N 00:33:42 10° ENE visible
30 May ? 02:07:32 10° WNW 02:11:55 50° NNE 02:15:17 16° E visible
30 May ? 03:49:15 10° WNW 03:57:11 15° SSE 03:57:59 10° SE visible
30 May ? 23:01:25 10° W 23:05:35 39° NNW 23:09:48 10° ENE visible
31 May ? 00:43:52 10° WNW 00:47:57 35° N 00:52:06 10° ENE visible
31 May ? 02:25:34 10° WNW 02:29:07 54° NW 02:29:07 54° NW visible
31 May ? 21:37:20 10° WSW 21:41:45 65° NNW 21:46:10 10° ENE visible
31 May ? 23:19:52 10° WNW 23:23:55 33° N 23:28:00 10° ENE visible
01 Jun ? 01:02:00 10° WNW 01:06:16 42° NNE 01:07:58 30° ENE visible
01 Jun ? 02:43:39 10° WNW 02:45:03 20° WNW 02:45:03 20° WNW visible
01 Jun ? 21:55:41 10° W 21:59:56 44° NNW 22:04:14 10° ENE visible
01 Jun ? 23:38:14 10° WNW 23:42:17 33° N 23:46:22 10° ENE visible
02 Jun ? 01:20:03 10° WNW 01:24:16 60° N 01:24:16 60° N visible
02 Jun ? 22:14:09 10° WNW 22:18:15 35° N 22:22:21 10° ENE visible
02 Jun ? 23:56:27 10° WNW 00:00:37 37° NNE 00:03:40 17° ENE visible
03 Jun ? 01:38:05 10° WNW 01:40:47 36° WNW 01:40:47 36° WNW visible
03 Jun ? 22:32:34 10° WNW 22:36:35 32° N 22:40:38 10° ENE visible
04 Jun ? 00:14:32 10° WNW 00:18:53 50° NNE 00:20:17 36° ENE visible
04 Jun ? 01:56:15 10° WNW 01:57:24 17° WNW 01:57:24 17° WNW visible
04 Jun ? 22:50:51 10° WNW 22:54:56 34° N 22:59:03 10° ENE visible
05 Jun ? 00:32:33 10° WNW 00:36:58 77° NNE 00:36:58 77° NNE visible
05 Jun ? 23:09:00 10° WNW 23:13:14 42° NNE 23:16:36 15° E visible
06 Jun ? 00:50:39 10° WNW 00:53:43 41° W 00:53:43 41° W visible
06 Jun ? 21:45:13 10° WNW 21:49:14 33° N 21:53:17 10° ENE visible
06 Jun ? 23:27:01 10° WNW 23:31:27 61° NNE 23:33:24 31° E visible
